Вернуться в каталог

STARLINK-30835

АктивенСвязьVLEO
NORAD 58219·PAYLOAD·🇺🇸 United States

Запущен Nov 3, 2023 с Cape Canaveral Space Force Station

Loading…

Ближайшие Пролёты (ближайшие 24 часа)

TLE

СвежийSource: CelesTrak SupGP

Эпоха: Sep 15, 2026, 03:19 UTC

1 58219C 23170P   26258.13868056 -.00037351  00000+0 -13531-2 0  2581
2 58219  42.9996 204.3225 0001271 271.2435  70.9798 15.27591408    12

Отслеживайте STARLINK-30835 в реальном времени с AllMySat

Download on the App Store